This is the latest recevied weather packets stored in our database for station/object IZ5MMH-4. If no packets are shown the sender has not sent any weather packets the latest 10 day(s).
| Time | Temp. | Humidity | Pressure | Rain* | Wind** | Luminosity | Snow |
|---|---|---|---|---|---|---|---|
| 1777286080 | 20° C | 72% | 1021.3 hPa | - | - | - | - |
| 1777285480 | 20° C | 72% | 1021.2 hPa | - | - | - | - |
| 1777284879 | 19.44° C | 69% | 1021.3 hPa | - | - | - | - |
| 1777284280 | 19.44° C | 69% | 1021.4 hPa | - | - | - | - |
| 1777283680 | 19.44° C | 68% | 1021.4 hPa | - | - | - | - |
| 1777283080 | 19.44° C | 71% | 1021.5 hPa | - | - | - | - |
| 1777282480 | 18.89° C | 74% | 1021.4 hPa | - | - | - | - |
| 1777281880 | 18.89° C | 75% | 1021.6 hPa | - | - | - | - |
| 1777281280 | 18.89° C | 76% | 1021.5 hPa | - | - | - | - |
| 1777280680 | 18.89° C | 76% | 1021.6 hPa | - | - | - | - |
| 1777280080 | 18.33° C | 75% | 1021.7 hPa | - | - | - | - |
| 1777279480 | 18.33° C | 75% | 1021.7 hPa | - | - | - | - |
| 1777278880 | 18.33° C | 74% | 1021.7 hPa | - | - | - | - |
| 1777278280 | 17.78° C | 73% | 1021.8 hPa | - | - | - | - |
| 1777277680 | 17.78° C | 73% | 1021.7 hPa | - | - | - | - |
| 1777277080 | 17.78° C | 73% | 1021.9 hPa | - | - | - | - |
| 1777276479 | 17.22° C | 73% | 1021.9 hPa | - | - | - | - |
| 1777275880 | 17.22° C | 73% | 1021.8 hPa | - | - | - | - |
| 1777275280 | 17.22° C | 72% | 1021.9 hPa | - | - | - | - |
| 1777274679 | 17.22° C | 72% | 1021.8 hPa | - | - | - | - |
| 1777274080 | 17.22° C | 70% | 1021.8 hPa | - | - | - | - |
| 1777273480 | 16.67° C | 69% | 1021.8 hPa | - | - | - | - |
| 1777272880 | 16.67° C | 68% | 1021.8 hPa | - | - | - | - |
| 1777272280 | 16.67° C | 67% | 1021.9 hPa | - | - | - | - |
| 1777271680 | 16.67° C | 66% | 1021.8 hPa | - | - | - | - |
* Rain since midnight (hover to see other rain measurements)
** Current wind speed in m/s (hover to see current wind gust speed)